Total_Precipitation_Accumulation
0.03 0.03 0.02 0.03 0.03 0.02 0.02 0.03 0.03 0.03 0.03 0.03 0.02 0.03 0.03 0.03 0.02 0.03 0.02 0.02 0.01 0.02 0.02 0.01 0.02 0.01 0.01 0.00 0.00 0.00 0.00 0.01 0.00 0.00 0.00 0.00 0.00 0.00 0.00 0.00 0.00 0.00 0.00 0.00 0.00 0.00 0.00 0.00 0.00 0.00 0.00 0.00 0.00 0.00 0.00 0.00 0.00 0.00 0.00 0.00 0.00 0.00 0.00 0.00 0.00 0.00 0.00 0.00 0.00 0.00 0.00 0.00 0.00 0.00 0.00 0.00 0.00 0.00 0.00 0.02 0.01 0.02 0.05 0.12 0.04 0.12 0.03 0.03
0.02 0.02 0.02 0.02 0.02 0.02 0.02 0.02 0.02 0.02 0.02 0.02 0.03 0.02 0.03 0.03 0.03 0.01 0.02 0.02 0.02 0.02 0.02 0.02 0.01 0.01 0.01 0.00 0.00 0.00 0.00 0.00 0.00 0.00 0.00 0.00 0.00 0.00 0.00 0.00 0.00 0.00 0.00 0.00 0.00 0.00 0.00 0.00 0.00 0.00 0.00 0.00 0.00 0.00 0.00 0.00 0.00 0.00 0.00 0.00 0.00 0.00 0.00 0.00 0.00 0.00 0.00 0.00 0.00 0.00 0.00 0.00 0.00 0.00 0.00 0.02 0.01 0.01 0.01 0.03 0.04 0.10 0.17 0.19 0.07 0.02 0.04 0.03
0.02 0.02 0.02 0.02 0.03 0.02 0.03 0.02 0.02 0.01 0.02 0.02 0.01 0.02 0.02 0.03 0.02 0.02 0.01 0.02 0.02 0.01 0.01 0.01 0.01 0.00 0.00 0.00 0.00 0.00 0.00 0.00 0.00 0.00 0.00 0.00 0.00 0.00 0.00 0.00 0.00 0.00 0.00 0.00 0.00 0.00 0.00 0.00 0.00 0.00 0.00 0.00 0.00 0.00 0.00 0.00 0.00 0.00 0.00 0.00 0.00 0.00 0.00 0.00 0.00 0.00 0.00 0.00 0.00 0.00 0.00 0.00 0.00 0.00 0.00 0.01 0.01 0.00 0.03 0.01 0.04 0.19 0.35 0.14 0.10 0.11 0.07 0.07
0.02 0.02 0.02 0.03 0.02 0.03 0.02 0.02 0.02 0.02 0.03 0.03 0.02 0.02 0.02 0.02 0.02 0.02 0.02 0.02 0.00 0.01 0.01 0.01 0.00 0.00 0.00 0.00 0.00 0.00 0.00 0.00 0.00 0.00 0.00 0.00 0.00 0.00 0.00 0.00 0.00 0.00 0.00 0.00 0.00 0.00 0.00 0.00 0.00 0.00 0.00 0.00 0.00 0.00 0.00 0.00 0.00 0.00 0.00 0.00 0.00 0.00 0.00 0.00 0.00 0.00 0.00 0.00 0.00 0.00 0.00 0.00 0.00 0.00 0.00 0.00 0.02 0.00 0.06 0.04 0.02 0.09 0.19 0.13 0.13 0.07 0.09 0.07
0.02 0.02 0.03 0.02 0.03 0.03 0.02 0.02 0.02 0.02 0.02 0.03 0.03 0.02 0.03 0.01 0.02 0.02 0.02 0.01 0.01 0.01 0.01 0.00 0.00 0.00 0.00 0.00 0.00 0.00 0.00 0.00 0.00 0.00 0.00 0.00 0.00 0.00 0.00 0.00 0.00 0.00 0.00 0.00 0.00 0.00 0.00 0.00 0.00 0.00 0.00 0.00 0.00 0.00 0.00 0.00 0.00 0.00 0.00 0.00 0.00 0.00 0.00 0.00 0.00 0.00 0.00 0.00 0.00 0.00 0.00 0.00 0.00 0.00 0.00 0.00 0.00 0.03 0.02 0.03 0.01 0.04 0.41 0.08 0.13 0.14 0.10 0.08
0.01 0.03 0.03 0.03 0.02 0.02 0.02 0.02 0.01 0.02 0.02 0.03 0.03 0.03 0.03 0.02 0.02 0.02 0.01 0.02 0.02 0.01 0.01 0.00 0.00 0.00 0.00 0.00 0.00 0.00 0.00 0.00 0.00 0.00 0.00 0.00 0.00 0.00 0.00 0.00 0.00 0.00 0.00 0.00 0.00 0.00 0.00 0.00 0.00 0.00 0.00 0.00 0.00 0.00 0.00 0.00 0.00 0.00 0.00 0.00 0.00 0.00 0.00 0.00 0.00 0.00 0.00 0.00 0.00 0.00 0.00 0.00 0.00 0.00 0.00 0.00 0.00 0.00 0.00 0.00 0.01 0.04 0.13 0.05 0.06 0.05 0.10 0.08
0.02 0.03 0.02 0.01 0.02 0.02 0.02 0.03 0.02 0.02 0.02 0.02 0.02 0.03 0.02 0.03 0.02 0.01 0.02 0.02 0.02 0.02 0.00 0.00 0.00 0.00 0.00 0.00 0.00 0.00 0.00 0.00 0.00 0.00 0.00 0.00 0.00 0.00 0.00 0.00 0.00 0.00 0.00 0.00 0.00 0.00 0.00 0.00 0.00 0.00 0.00 0.00 0.00 0.00 0.00 0.00 0.00 0.00 0.00 0.00 0.00 0.00 0.00 0.00 0.00 0.00 0.00 0.00 0.00 0.00 0.00 0.00 0.00 0.00 0.00 0.00 0.00 0.00 0.01 0.02 0.01 0.04 0.08 0.03 0.05 0.06 0.07 0.09
0.02 0.02 0.01 0.01 0.01 0.02 0.02 0.02 0.03 0.02 0.02 0.02 0.02 0.02 0.02 0.02 0.03 0.02 0.02 0.01 0.02 0.01 0.01 0.00 0.00 0.00 0.00 0.00 0.00 0.00 0.00 0.00 0.00 0.00 0.00 0.00 0.00 0.00 0.00 0.00 0.00 0.00 0.00 0.00 0.00 0.00 0.00 0.00 0.00 0.00 0.00 0.00 0.00 0.00 0.00 0.00 0.00 0.00 0.00 0.00 0.00 0.00 0.00 0.00 0.00 0.00 0.00 0.00 0.00 0.00 0.00 0.00 0.00 0.00 0.00 0.00 0.00 0.00 0.00 0.00 0.01 0.03 0.04 0.05 0.05 0.06 0.07 0.08
0.02 0.01 0.01 0.01 0.02 0.02 0.02 0.02 0.02 0.02 0.02 0.01 0.02 0.01 0.02 0.02 0.02 0.02 0.02 0.02 0.01 0.01 0.00 0.00 0.00 0.00 0.00 0.00 0.00 0.00 0.00 0.00 0.00 0.00 0.00 0.00 0.00 0.00 0.00 0.00 0.00 0.00 0.00 0.00 0.00 0.00 0.00 0.00 0.00 0.00 0.00 0.00 0.00 0.00 0.00 0.00 0.00 0.00 0.00 0.00 0.00 0.00 0.00 0.00 0.00 0.00 0.00 0.00 0.00 0.00 0.00 0.00 0.00 0.00 0.00 0.00 0.00 0.00 0.00 0.00 0.00 0.02 0.03 0.07 0.06 0.04 0.06 0.10
0.02 0.01 0.01 0.02 0.02 0.02 0.01 0.01 0.01 0.01 0.01 0.01 0.01 0.01 0.02 0.02 0.01 0.02 0.01 0.01 0.01 0.01 0.01 0.00 0.00 0.00 0.00 0.00 0.00 0.00 0.00 0.00 0.00 0.00 0.00 0.00 0.00 0.00 0.00 0.00 0.00 0.00 0.00 0.00 0.00 0.00 0.00 0.00 0.00 0.00 0.00 0.00 0.00 0.00 0.00 0.00 0.00 0.00 0.00 0.00 0.00 0.00 0.00 0.00 0.00 0.00 0.00 0.00 0.00 0.00 0.00 0.00 0.00 0.00 0.00 0.00 0.00 0.00 0.00 0.00 0.00 0.01 0.02 0.11 0.09 0.10 0.12 0.07
0.01 0.02 0.01 0.02 0.01 0.01 0.01 0.01 0.01 0.01 0.01 0.01 0.01 0.02 0.02 0.02 0.01 0.02 0.03 0.01 0.01 0.01 0.01 0.00 0.00 0.00 0.00 0.00 0.00 0.00 0.00 0.00 0.00 0.00 0.00 0.00 0.00 0.00 0.00 0.00 0.00 0.00 0.00 0.00 0.00 0.00 0.00 0.00 0.00 0.00 0.00 0.00 0.00 0.00 0.00 0.00 0.00 0.00 0.00 0.00 0.00 0.00 0.00 0.00 0.00 0.00 0.00 0.00 0.00 0.00 0.00 0.00 0.00 0.00 0.00 0.00 0.00 0.00 0.00 0.00 0.01 0.02 0.04 0.09 0.12 0.11 0.16 0.13
0.01 0.02 0.02 0.00 0.01 0.01 0.01 0.01 0.01 0.02 0.02 0.03 0.03 0.03 0.02 0.01 0.01 0.01 0.02 0.02 0.01 0.01 0.00 0.00 0.01 0.03 0.00 0.00 0.00 0.00 0.00 0.00 0.00 0.00 0.00 0.00 0.00 0.00 0.00 0.00 0.00 0.00 0.00 0.00 0.00 0.00 0.00 0.00 0.00 0.00 0.00 0.00 0.00 0.00 0.00 0.00 0.00 0.00 0.00 0.00 0.00 0.00 0.00 0.00 0.00 0.00 0.00 0.00 0.00 0.00 0.00 0.00 0.00 0.00 0.00 0.00 0.00 0.00 0.00 0.00 0.01 0.02 0.04 0.12 0.09 0.16 0.11 0.14
0.01 0.02 0.01 0.01 0.02 0.03 0.01 0.01 0.01 0.02 0.03 0.03 0.03 0.02 0.02 0.01 0.01 0.01 0.01 0.02 0.01 0.00 0.00 0.00 0.00 0.00 0.00 0.00 0.00 0.00 0.00 0.00 0.00 0.00 0.00 0.00 0.00 0.00 0.00 0.00 0.00 0.00 0.00 0.00 0.00 0.00 0.00 0.00 0.00 0.00 0.00 0.00 0.00 0.00 0.00 0.00 0.00 0.00 0.00 0.00 0.00 0.00 0.00 0.00 0.00 0.00 0.00 0.00 0.00 0.00 0.00 0.00 0.00 0.00 0.00 0.00 0.00 0.00 0.00 0.01 0.01 0.07 0.08 0.08 0.09 0.08 0.08 0.09
0.01 0.01 0.02 0.02 0.01 0.01 0.02 0.02 0.02 0.02 0.02 0.02 0.02 0.01 0.01 0.02 0.02 0.01 0.01 0.02 0.02 0.03 0.01 0.01 0.04 0.02 0.00 0.00 0.00 0.00 0.00 0.00 0.00 0.00 0.00 0.00 0.00 0.00 0.00 0.00 0.00 0.00 0.00 0.00 0.00 0.00 0.00 0.00 0.00 0.00 0.00 0.00 0.00 0.00 0.00 0.00 0.00 0.00 0.00 0.00 0.00 0.00 0.00 0.00 0.00 0.00 0.00 0.00 0.00 0.00 0.00 0.00 0.00 0.00 0.00 0.00 0.00 0.00 0.00 0.00 0.01 0.05 0.06 0.05 0.10 0.07 0.07 0.14
0.01 0.02 0.01 0.01 0.01 0.01 0.01 0.01 0.01 0.01 0.01 0.01 0.01 0.01 0.01 0.01 0.02 0.02 0.02 0.02 0.02 0.00 0.02 0.06 0.03 0.01 0.00 0.00 0.00 0.00 0.00 0.00 0.00 0.00 0.00 0.00 0.00 0.00 0.00 0.00 0.00 0.00 0.00 0.00 0.00 0.00 0.00 0.00 0.00 0.00 0.00 0.00 0.00 0.00 0.00 0.00 0.00 0.00 0.00 0.00 0.00 0.00 0.00 0.00 0.00 0.00 0.00 0.00 0.00 0.00 0.00 0.00 0.00 0.00 0.00 0.00 0.00 0.00 0.00 0.00 0.01 0.03 0.05 0.09 0.06 0.07 0.08 0.08
0.01 0.03 0.00 0.01 0.01 0.01 0.00 0.01 0.01 0.01 0.01 0.02 0.01 0.01 0.01 0.02 0.02 0.02 0.02 0.02 0.01 0.00 0.01 0.04 0.01 0.01 0.00 0.00 0.00 0.00 0.00 0.00 0.00 0.00 0.00 0.00 0.00 0.00 0.00 0.00 0.00 0.00 0.00 0.00 0.00 0.00 0.00 0.00 0.00 0.00 0.00 0.00 0.00 0.00 0.00 0.00 0.00 0.00 0.00 0.00 0.00 0.00 0.00 0.00 0.00 0.00 0.00 0.00 0.00 0.00 0.00 0.00 0.00 0.00 0.00 0.00 0.00 0.00 0.00 0.00 0.01 0.02 0.08 0.12 0.11 0.10 0.10 0.18
0.01 0.01 0.01 0.01 0.02 0.02 0.01 0.01 0.01 0.01 0.01 0.01 0.01 0.00 0.00 0.00 0.01 0.01 0.03 0.03 0.01 0.00 0.02 0.00 0.00 0.00 0.00 0.00 0.00 0.00 0.00 0.00 0.00 0.00 0.00 0.00 0.00 0.00 0.00 0.00 0.00 0.00 0.00 0.00 0.00 0.00 0.00 0.00 0.00 0.00 0.00 0.00 0.00 0.00 0.00 0.00 0.00 0.00 0.00 0.00 0.00 0.00 0.00 0.00 0.00 0.00 0.00 0.00 0.00 0.00 0.00 0.00 0.00 0.00 0.00 0.00 0.00 0.00 0.00 0.00 0.01 0.03 0.04 0.09 0.08 0.13 0.08 0.21
0.01 0.02 0.01 0.01 0.01 0.01 0.01 0.01 0.02 0.01 0.01 0.00 0.00 0.00 0.00 0.00 0.01 0.01 0.01 0.01 0.00 0.00 0.01 0.00 0.00 0.00 0.00 0.00 0.00 0.00 0.00 0.00 0.00 0.00 0.00 0.00 0.00 0.00 0.00 0.00 0.00 0.00 0.00 0.00 0.00 0.00 0.00 0.00 0.00 0.00 0.00 0.00 0.00 0.00 0.00 0.00 0.00 0.00 0.00 0.00 0.00 0.00 0.00 0.00 0.00 0.00 0.00 0.00 0.00 0.00 0.00 0.00 0.00 0.00 0.00 0.00 0.00 0.00 0.00 0.00 0.00 0.01 0.04 0.09 0.09 0.09 0.16 0.15
0.01 0.01 0.01 0.01 0.01 0.01 0.01 0.01 0.00 0.01 0.01 0.00 0.00 0.01 0.01 0.01 0.02 0.01 0.00 0.02 0.00 0.00 0.00 0.00 0.00 0.00 0.02 0.00 0.00 0.00 0.00 0.00 0.00 0.00 0.00 0.00 0.00 0.00 0.00 0.00 0.00 0.00 0.00 0.00 0.00 0.00 0.00 0.00 0.00 0.00 0.00 0.00 0.00 0.00 0.00 0.00 0.00 0.00 0.00 0.01 0.00 0.00 0.00 0.00 0.00 0.00 0.00 0.00 0.00 0.00 0.00 0.00 0.00 0.00 0.00 0.00 0.00 0.00 0.00 0.00 0.01 0.02 0.05 0.05 0.06 0.10 0.16 0.21
0.01 0.01 0.01 0.01 0.01 0.01 0.01 0.00 0.00 0.01 0.01 0.00 0.00 0.01 0.01 0.00 0.00 0.00 0.01 0.02 0.00 0.00 0.00 0.00 0.00 0.00 0.00 0.00 0.00 0.00 0.00 0.00 0.00 0.00 0.00 0.00 0.00 0.00 0.00 0.00 0.00 0.00 0.00 0.00 0.00 0.00 0.00 0.00 0.00 0.00 0.00 0.00 0.00 0.00 0.00 0.00 0.00 0.00 0.00 0.00 0.00 0.00 0.01 0.00 0.00 0.00 0.00 0.00 0.00 0.00 0.00 0.00 0.00 0.00 0.00 0.00 0.00 0.00 0.00 0.00 0.00 0.01 0.01 0.02 0.04 0.09 0.08 0.14
0.01 0.02 0.01 0.01 0.01 0.01 0.00 0.01 0.00 0.00 0.00 0.01 0.00 0.00 0.00 0.00 0.00 0.01 0.00 0.00 0.00 0.00 0.00 0.00 0.00 0.00 0.00 0.00 0.00 0.00 0.00 0.00 0.00 0.00 0.00 0.00 0.00 0.00 0.00 0.00 0.00 0.00 0.00 0.00 0.00 0.00 0.00 0.00 0.00 0.00 0.00 0.00 0.00 0.00 0.00 0.00 0.00 0.00 0.00 0.00 0.00 0.00 0.00 0.00 0.00 0.00 0.00 0.00 0.00 0.00 0.00 0.00 0.00 0.00 0.00 0.00 0.00 0.00 0.00 0.00 0.00 0.00 0.01 0.01 0.02 0.08 0.03 0.16
0.01 0.01 0.01 0.01 0.01 0.01 0.01 0.00 0.00 0.00 0.01 0.01 0.01 0.00 0.00 0.00 0.00 0.00 0.00 0.00 0.00 0.00 0.00 0.00 0.00 0.00 0.00 0.00 0.00 0.00 0.00 0.00 0.00 0.00 0.00 0.00 0.00 0.00 0.00 0.00 0.00 0.00 0.00 0.00 0.00 0.00 0.00 0.00 0.00 0.00 0.00 0.00 0.00 0.00 0.00 0.00 0.00 0.00 0.00 0.00 0.00 0.00 0.00 0.00 0.00 0.00 0.00 0.00 0.00 0.00 0.00 0.00 0.00 0.00 0.01 0.00 0.00 0.01 0.02 0.02 0.02 0.02 0.02 0.02 0.02 0.05 0.07 0.08
0.01 0.01 0.01 0.01 0.01 0.00 0.00 0.00 0.00 0.01 0.02 0.02 0.00 0.00 0.00 0.00 0.00 0.00 0.00 0.00 0.00 0.00 0.00 0.00 0.00 0.00 0.00 0.00 0.00 0.00 0.00 0.00 0.00 0.00 0.00 0.00 0.00 0.00 0.00 0.00 0.00 0.00 0.00 0.00 0.00 0.00 0.00 0.00 0.00 0.00 0.00 0.00 0.00 0.00 0.00 0.00 0.00 0.00 0.00 0.00 0.00 0.00 0.00 0.00 0.00 0.00 0.00 0.00 0.00 0.00 0.00 0.00 0.00 0.00 0.01 0.01 0.01 0.01 0.02 0.01 0.02 0.02 0.03 0.08 0.07 0.10 0.06 0.02
0.01 0.01 0.01 0.01 0.00 0.00 0.00 0.00 0.00 0.01 0.01 0.00 0.00 0.00 0.00 0.00 0.00 0.00 0.00 0.00 0.00 0.00 0.00 0.00 0.00 0.00 0.00 0.00 0.00 0.00 0.00 0.00 0.00 0.00 0.00 0.00 0.00 0.00 0.00 0.00 0.00 0.00 0.00 0.00 0.00 0.00 0.00 0.00 0.00 0.00 0.00 0.00 0.00 0.00 0.00 0.00 0.00 0.00 0.00 0.00 0.00 0.00 0.00 0.00 0.02 0.00 0.00 0.00 0.00 0.00 0.00 0.00 0.00 0.00 0.00 0.02 0.00 0.00 0.01 0.01 0.01 0.02 0.03 0.03 0.05 0.03 0.08 0.03
0.01 0.01 0.01 0.00 0.00 0.00 0.00 0.00 0.00 0.00 0.00 0.00 0.00 0.00 0.00 0.00 0.00 0.00 0.00 0.00 0.00 0.00 0.00 0.00 0.00 0.00 0.00 0.00 0.00 0.00 0.00 0.00 0.00 0.00 0.00 0.00 0.00 0.00 0.00 0.00 0.00 0.00 0.00 0.00 0.00 0.00 0.00 0.01 0.00 0.00 0.00 0.00 0.00 0.00 0.00 0.00 0.00 0.00 0.00 0.00 0.00 0.00 0.00 0.00 0.00 0.00 0.00 0.00 0.00 0.00 0.00 0.02 0.01 0.01 0.01 0.01 0.01 0.02 0.02 0.01 0.03 0.05 0.05 0.02 0.05 0.08 0.04 0.03
0.01 0.00 0.00 0.01 0.01 0.00 0.00 0.00 0.00 0.00 0.00 0.00 0.00 0.00 0.00 0.00 0.00 0.00 0.00 0.00 0.01 0.00 0.00 0.00 0.00 0.00 0.00 0.00 0.00 0.00 0.00 0.00 0.00 0.00 0.00 0.00 0.00 0.00 0.00 0.00 0.00 0.00 0.00 0.00 0.00 0.00 0.00 0.00 0.00 0.00 0.00 0.00 0.00 0.00 0.00 0.00 0.00 0.00 0.00 0.00 0.00 0.00 0.00 0.00 0.00 0.00 0.00 0.00 0.02 0.00 0.00 0.03 0.01 0.02 0.02 0.01 0.01 0.03 0.02 0.03 0.04 0.03 0.05 0.12 0.09 0.07 0.06 0.05
0.00 0.00 0.01 0.00 0.00 0.01 0.00 0.00 0.01 0.00 0.00 0.00 0.00 0.00 0.00 0.00 0.00 0.00 0.00 0.01 0.00 0.02 0.01 0.00 0.00 0.00 0.00 0.00 0.00 0.00 0.00 0.00 0.00 0.00 0.00 0.00 0.00 0.00 0.00 0.00 0.00 0.00 0.00 0.00 0.00 0.00 0.00 0.00 0.00 0.00 0.00 0.00 0.00 0.00 0.00 0.00 0.00 0.00 0.00 0.00 0.00 0.00 0.00 0.00 0.00 0.00 0.01 0.00 0.00 0.00 0.00 0.03 0.04 0.01 0.01 0.02 0.01 0.02 0.02 0.03 0.04 0.05 0.07 0.08 0.10 0.12 0.06 0.05
0.00 0.00 0.01 0.02 0.01 0.02 0.02 0.02 0.00 0.00 0.00 0.00 0.00 0.00 0.00 0.00 0.00 0.00 0.00 0.00 0.00 0.00 0.01 0.00 0.00 0.00 0.00 0.00 0.00 0.00 0.00 0.00 0.00 0.00 0.00 0.00 0.00 0.00 0.00 0.00 0.00 0.00 0.00 0.00 0.00 0.01 0.00 0.00 0.00 0.00 0.00 0.00 0.00 0.00 0.00 0.00 0.00 0.00 0.00 0.00 0.00 0.00 0.00 0.00 0.00 0.00 0.00 0.01 0.03 0.00 0.00 0.00 0.03 0.02 0.01 0.01 0.01 0.01 0.04 0.05 0.04 0.03 0.04 0.07 0.08 0.09 0.14 0.14
0.00 0.01 0.01 0.01 0.00 0.00 0.01 0.02 0.01 0.00 0.00 0.00 0.00 0.00 0.00 0.00 0.00 0.00 0.11 0.02 0.04 0.00 0.00 0.02 0.00 0.00 0.00 0.00 0.00 0.00 0.00 0.00 0.00 0.00 0.00 0.00 0.00 0.00 0.00 0.00 0.00 0.00 0.00 0.00 0.00 0.01 0.00 0.00 0.00 0.00 0.00 0.00 0.00 0.00 0.00 0.00 0.00 0.00 0.00 0.00 0.00 0.00 0.00 0.00 0.00 0.00 0.02 0.00 0.02 0.01 0.02 0.01 0.08 0.00 0.01 0.01 0.01 0.04 0.08 0.09 0.10 0.09 0.07 0.05 0.07 0.06 0.10 0.21
0.01 0.01 0.01 0.01 0.01 0.01 0.01 0.02 0.00 0.00 0.00 0.00 0.00 0.00 0.00 0.02 0.01 0.00 0.02 0.00 0.00 0.03 0.00 0.00 0.00 0.00 0.00 0.00 0.00 0.00 0.00 0.00 0.00 0.00 0.00 0.00 0.00 0.00 0.00 0.00 0.00 0.00 0.00 0.00 0.00 0.00 0.00 0.00 0.00 0.00 0.00 0.00 0.00 0.00 0.00 0.00 0.00 0.00 0.00 0.00 0.00 0.00 0.00 0.00 0.00 0.00 0.01 0.00 0.01 0.00 0.01 0.01 0.09 0.03 0.04 0.03 0.04 0.05 0.06 0.10 0.08 0.08 0.04 0.07 0.07 0.08 0.06 0.07
0.01 0.01 0.01 0.01 0.03 0.00 0.00 0.00 0.00 0.00 0.00 0.00 0.00 0.00 0.00 0.01 0.04 0.01 0.00 0.01 0.00 0.02 0.00 0.00 0.00 0.00 0.00 0.00 0.00 0.00 0.00 0.00 0.00 0.00 0.00 0.00 0.00 0.00 0.00 0.00 0.00 0.00 0.00 0.00 0.00 0.00 0.00 0.00 0.00 0.00 0.00 0.00 0.00 0.00 0.00 0.00 0.00 0.00 0.00 0.00 0.00 0.00 0.00 0.00 0.00 0.00 0.04 0.00 0.02 0.00 0.00 0.04 0.11 0.09 0.07 0.05 0.03 0.07 0.07 0.09 0.05 0.07 0.09 0.09 0.06 0.13 0.05 0.05
0.01 0.01 0.01 0.05 0.01 0.02 0.00 0.00 0.00 0.00 0.00 0.00 0.00 0.00 0.02 0.07 0.01 0.02 0.00 0.00 0.01 0.00 0.00 0.01 0.00 0.00 0.00 0.00 0.00 0.00 0.00 0.00 0.00 0.00 0.00 0.00 0.00 0.00 0.00 0.00 0.00 0.00 0.00 0.00 0.01 0.00 0.00 0.00 0.00 0.00 0.00 0.00 0.00 0.00 0.00 0.00 0.00 0.00 0.00 0.00 0.01 0.08 0.00 0.01 0.00 0.00 0.00 0.01 0.01 0.00 0.01 0.01 0.07 0.11 0.17 0.04 0.08 0.04 0.05 0.05 0.13 0.05 0.04 0.07 0.03 0.05 0.16 0.04
0.00 0.01 0.01 0.02 0.02 0.01 0.00 0.00 0.00 0.00 0.00 0.01 0.03 0.02 0.03 0.07 0.01 0.00 0.00 0.00 0.07 0.00 0.01 0.00 0.02 0.00 0.01 0.00 0.00 0.00 0.00 0.01 0.01 0.01 0.00 0.00 0.00 0.00 0.00 0.00 0.00 0.00 0.00 0.03 0.02 0.00 0.01 0.00 0.00 0.00 0.00 0.00 0.00 0.00 0.01 0.00 0.00 0.00 0.00 0.00 0.03 0.07 0.04 0.01 0.05 0.01 0.04 0.02 0.00 0.00 0.01 0.06 0.19 0.09 0.11 0.08 0.09 0.04 0.03 0.03 0.03 0.02 0.02 0.02 0.03 0.06 0.10 0.08
0.00 0.01 0.02 0.00 0.00 0.00 0.00 0.00 0.00 0.00 0.00 0.01 0.04 0.02 0.49 0.04 0.00 0.00 0.03 0.01 0.08 0.00 0.00 0.00 0.00 0.00 0.00 0.07 0.14 0.00 0.05 0.00 0.00 0.00 0.00 0.01 0.00 0.02 0.00 0.00 0.00 0.00 0.00 0.07 0.02 0.01 0.01 0.07 0.01 0.00 0.00 0.00 0.00 0.00 0.00 0.01 0.00 0.00 0.00 0.00 0.02 0.05 0.02 0.01 0.02 0.06 0.06 0.09 0.06 0.00 0.00 0.07 0.08 0.90 0.25 0.10 0.10 0.03 0.01 0.02 0.03 0.06 0.07 0.03 0.04 0.16 0.15 0.18
0.00 0.01 0.01 0.00 0.01 0.00 0.02 0.00 0.00 0.00 0.00 0.05 0.03 0.02 0.03 0.01 0.00 0.01 0.03 0.03 0.10 0.04 0.02 0.00 0.00 0.00 0.00 0.00 0.01 0.02 0.01 0.18 0.00 0.00 0.00 0.01 0.02 0.00 0.00 0.00 0.00 0.00 0.00 0.00 0.04 0.00 0.01 0.06 0.02 0.00 0.00 0.00 0.00 0.00 0.00 0.00 0.00 0.00 0.00 0.01 0.00 0.03 0.00 0.02 0.18 0.02 0.19 0.06 0.02 0.05 0.04 0.12 0.22 0.54 0.87 0.65 0.06 0.01 0.04 0.03 0.03 0.04 0.05 0.02 0.11 0.13 0.17 0.17
0.01 0.01 0.01 0.01 0.00 0.00 0.02 0.00 0.00 0.00 0.00 0.01 0.04 0.09 0.02 0.00 0.02 0.03 0.05 0.01 0.05 0.10 0.03 0.00 0.00 0.00 0.00 0.01 0.00 0.02 0.02 0.03 0.09 0.01 0.01 0.00 0.01 0.00 0.00 0.00 0.00 0.00 0.03 0.00 0.07 0.03 0.00 0.09 0.00 0.01 0.00 0.00 0.00 0.00 0.00 0.00 0.14 0.06 0.00 0.01 0.00 0.00 0.00 0.00 0.00 0.00 0.00 0.00 0.02 0.01 0.14 0.10 0.12 0.27 0.66 0.54 0.04 0.07 0.11 0.05 0.04 0.26 0.37 0.50 0.59 0.81 0.89 0.85
0.02 0.01 0.01 0.00 0.00 0.00 0.00 0.00 0.00 0.00 0.00 0.03 0.03 0.03 0.01 0.00 0.02 0.05 0.02 0.01 0.16 0.14 0.01 0.00 0.00 0.00 0.01 0.00 0.03 0.00 0.11 0.00 0.11 0.02 0.15 0.01 0.15 0.00 0.00 0.01 0.00 0.00 0.00 0.00 0.09 0.00 0.04 0.21 0.00 0.00 0.01 0.00 0.00 0.00 0.00 0.00 0.00 0.00 0.01 0.05 0.00 0.00 0.00 0.01 0.04 0.01 0.00 0.00 0.12 0.01 0.07 0.19 0.06 0.52 0.44 0.44 0.33 0.22 0.18 0.24 0.41 0.42 0.52 0.60 0.76 0.72 0.84 0.99
0.03 0.01 0.04 0.01 0.00 0.00 0.00 0.00 0.00 0.00 0.00 0.02 0.07 0.02 0.02 0.05 0.03 0.14 0.01 0.01 0.17 0.07 0.01 0.01 0.00 0.00 0.01 0.01 0.06 0.01 0.06 0.04 0.26 0.04 0.09 0.03 0.14 0.00 0.03 0.03 0.00 0.01 0.00 0.00 0.01 0.10 0.00 0.08 0.01 0.00 0.00 0.01 0.00 0.00 0.00 0.00 0.00 0.00 0.06 0.00 0.01 0.03 0.02 0.01 0.01 0.02 0.01 0.00 0.05 0.03 0.07 0.15 0.21 0.45 0.22 0.52 0.53 0.31 0.24 0.24 0.15 0.13 0.11 0.34 0.69 0.95 0.89 0.53
0.03 0.03 0.12 0.01 0.00 0.00 0.00 0.00 0.00 0.00 0.00 0.02 0.05 0.03 0.00 0.03 0.07 0.10 0.00 0.01 0.11 0.04 0.03 0.02 0.01 0.00 0.01 0.01 0.03 0.01 0.08 0.06 0.04 0.12 0.11 0.19 0.19 0.20 0.05 0.00 0.03 0.00 0.00 0.00 0.01 0.01 0.00 0.03 0.04 0.00 0.00 0.01 0.00 0.00 0.02 0.01 0.00 0.00 0.00 0.00 0.00 0.00 0.09 0.04 0.00 0.03 0.00 0.11 0.01 0.12 0.03 0.09 0.20 0.35 0.27 0.32 0.27 0.41 0.23 0.20 0.33 0.33 0.46 0.31 0.33 0.24 0.37 0.39
0.06 0.06 0.27 0.00 0.00 0.00 0.00 0.00 0.00 0.01 0.01 0.02 0.02 0.02 0.05 0.04 0.03 0.04 0.04 0.01 0.09 0.03 0.02 0.00 0.01 0.02 0.00 0.00 0.00 0.04 0.03 0.04 0.06 0.27 0.06 0.51 0.11 0.13 0.10 0.00 0.12 0.03 0.00 0.00 0.00 0.00 0.03 0.00 0.10 0.07 0.01 0.00 0.07 0.00 0.01 0.00 0.02 0.00 0.00 0.00 0.00 0.00 0.02 0.00 0.06 0.04 0.03 0.07 0.09 0.07 0.19 0.40 0.26 0.26 0.20 0.39 0.23 0.16 0.44 0.41 0.30 0.46 0.50 0.68 0.59 0.35 0.38 0.42
0.07 0.29 0.41 0.01 0.00 0.00 0.00 0.00 0.00 0.00 0.00 0.00 0.01 0.04 0.04 0.05 0.02 0.01 0.02 0.00 0.03 0.01 0.00 0.00 0.01 0.01 0.01 0.01 0.00 0.00 0.04 0.00 0.06 0.15 0.03 0.10 0.16 0.45 0.00 0.08 0.03 0.18 0.00 0.01 0.01 0.01 0.00 0.01 0.02 0.07 0.13 0.03 0.03 0.00 0.01 0.00 0.00 0.00 0.00 0.00 0.00 0.01 0.01 0.03 0.03 0.00 0.01 0.02 0.13 0.07 0.16 0.24 0.47 0.24 0.49 0.37 0.13 0.47 0.39 0.54 0.59 0.49 0.44 0.31 0.29 0.46 0.37 0.55
0.14 0.42 0.36 0.03 0.01 0.00 0.01 0.12 0.04 0.02 0.03 0.06 0.03 0.01 0.06 0.04 0.03 0.04 0.01 0.01 0.01 0.00 0.00 0.00 0.00 0.00 0.00 0.00 0.00 0.00 0.00 0.00 0.08 0.21 0.17 0.27 0.22 0.22 0.15 0.01 0.01 0.03 0.16 0.13 0.16 0.11 0.05 0.09 0.09 0.05 0.08 0.36 0.02 0.05 0.00 0.00 0.00 0.00 0.02 0.05 0.00 0.00 0.00 0.04 0.04 0.14 0.04 0.03 0.02 0.17 0.19 0.43 0.41 0.43 0.27 0.36 0.11 0.09 0.40 0.54 1.03 0.51 0.57 0.27 0.19 0.21 0.58 0.50
0.30 0.79 0.23 0.03 0.00 0.01 0.07 0.18 0.04 0.02 0.11 0.04 0.01 0.02 0.03 0.03 0.04 0.02 0.02 0.01 0.02 0.00 0.00 0.00 0.00 0.00 0.00 0.00 0.02 0.01 0.00 0.01 0.03 0.19 0.09 0.12 0.17 0.05 0.01 0.02 0.02 0.03 0.02 0.28 0.03 0.08 0.00 0.04 0.11 0.08 0.07 0.09 0.12 0.01 0.00 0.00 0.00 0.01 0.01 0.01 0.01 0.08 0.01 0.05 0.07 0.16 0.18 0.17 0.14 0.10 0.05 0.58 0.59 0.54 0.42 0.25 0.22 0.16 0.25 0.80 0.45 0.80 0.68 0.50 0.27 0.17 0.18 0.30
0.79 0.62 0.09 0.01 0.00 0.02 0.22 0.14 0.09 0.05 0.09 0.01 0.03 0.08 0.03 0.03 0.03 0.03 0.01 0.00 0.07 0.01 0.00 0.00 0.00 0.00 0.02 0.00 0.00 0.00 0.01 0.01 0.00 0.02 0.10 0.04 0.26 0.03 0.09 0.08 0.02 0.18 0.13 0.38 0.16 0.12 0.22 0.24 0.06 0.36 0.21 0.26 0.25 0.09 0.05 0.00 0.00 0.03 0.14 0.06 0.07 0.05 0.03 0.03 0.05 0.05 0.06 0.12 0.18 0.10 0.34 0.33 0.51 0.42 0.25 0.43 0.20 0.61 0.66 0.69 0.80 0.73 0.84 0.48 0.27 0.11 0.08 0.14
1.64 0.20 0.23 0.09 0.13 0.25 0.39 0.38 0.18 0.04 0.08 0.11 0.10 0.16 0.13 0.05 0.01 0.01 0.06 0.05 0.01 0.01 0.00 0.01 0.00 0.05 0.00 0.00 0.00 0.00 0.00 0.01 0.11 0.00 0.02 0.20 0.21 0.01 0.09 0.03 0.05 0.18 0.07 0.03 0.02 0.05 0.14 0.36 0.19 0.29 0.33 0.41 0.38 0.30 0.32 0.20 0.19 0.13 0.07 0.05 0.11 0.01 0.02 0.04 0.03 0.06 0.04 0.09 0.12 0.16 0.10 0.32 0.43 0.26 0.34 0.71 0.75 0.79 0.86 0.59 0.61 0.73 0.58 0.56 0.83 0.24 0.65 0.39
0.68 0.21 0.10 0.57 0.46 0.40 0.13 0.18 0.04 0.08 0.07 0.10 0.09 0.06 0.04 0.12 0.01 0.00 0.01 0.02 0.01 0.01 0.01 0.01 0.00 0.00 0.00 0.00 0.00 0.01 0.00 0.00 0.02 0.09 0.03 0.15 0.06 0.02 0.03 0.06 0.06 0.09 0.01 0.01 0.05 0.05 0.15 0.13 0.16 0.22 0.33 0.33 0.52 0.30 0.24 0.04 0.07 0.22 0.23 0.13 0.12 0.10 0.10 0.11 0.10 0.06 0.15 0.15 0.11 0.30 0.25 0.28 0.34 0.38 0.21 0.25 0.33 0.25 0.34 0.34 0.61 0.51 0.70 0.39 0.56 1.09 0.77 0.96
0.45 0.25 0.03 0.10 0.21 0.63 0.60 0.14 0.22 0.12 0.41 0.15 0.11 0.09 0.09 0.05 0.10 0.17 0.00 0.13 0.01 0.05 0.02 0.00 0.01 0.01 0.02 0.01 0.01 0.01 0.01 0.01 0.01 0.01 0.02 0.03 0.07 0.03 0.00 0.02 0.05 0.08 0.06 0.04 0.02 0.10 0.10 0.08 0.13 0.12 0.19 0.15 0.16 0.19 0.19 0.06 0.16 0.08 0.05 0.19 0.07 0.03 0.08 0.04 0.05 0.12 0.26 0.05 0.33 0.40 0.30 0.18 0.39 0.25 0.26 0.21 0.25 0.10 0.11 0.16 0.10 0.12 0.31 0.75 1.14 0.44 0.39 0.31
0.41 0.16 0.03 0.07 0.17 0.46 0.63 0.55 0.22 0.63 0.39 0.12 0.11 0.07 0.11 0.09 0.08 0.15 0.03 0.01 0.03 0.21 0.15 0.00 0.00 0.00 0.00 0.04 0.01 0.01 0.02 0.01 0.02 0.01 0.02 0.03 0.06 0.02 0.01 0.01 0.02 0.03 0.02 0.05 0.02 0.07 0.36 0.22 0.17 0.07 0.14 0.17 0.15 0.12 0.15 0.26 0.16 0.11 0.05 0.04 0.22 0.04 0.02 0.12 0.09 0.09 0.15 0.06 0.25 0.45 0.42 0.23 0.29 0.28 0.30 0.52 0.20 0.08 0.08 0.10 0.11 0.09 0.08 0.14 0.39 0.45 0.55 0.61
0.66 0.05 0.25 0.03 0.27 0.32 0.17 0.35 0.41 0.83 0.67 0.19 0.21 0.17 0.16 0.14 0.12 0.03 0.03 0.10 0.04 0.16 0.03 0.04 0.00 0.02 0.01 0.02 0.02 0.04 0.07 0.08 0.00 0.03 0.04 0.11 0.03 0.06 0.21 0.10 0.08 0.03 0.03 0.02 0.04 0.03 0.05 0.19 0.79 0.27 0.17 0.26 0.19 0.15 0.14 0.15 0.21 0.14 0.09 0.07 0.10 0.08 0.11 0.07 0.09 0.09 0.06 0.16 0.19 0.15 0.13 0.12 0.19 0.22 0.31 0.44 0.28 0.05 0.05 0.05 0.05 0.04 0.07 0.07 0.11 0.12 0.40 0.38
0.33 0.20 0.06 0.07 0.16 0.08 0.08 0.10 0.18 0.27 0.32 0.23 0.13 0.10 0.06 0.07 0.06 0.04 0.02 0.12 0.07 0.04 0.02 0.15 0.02 0.03 0.04 0.02 0.04 0.14 0.02 0.11 0.09 0.01 0.01 0.00 0.02 0.03 0.15 0.14 0.47 0.26 0.20 0.16 0.11 0.49 0.06 0.35 0.10 0.26 0.28 0.32 0.22 0.14 0.14 0.08 0.13 0.29 0.11 0.08 0.09 0.07 0.15 0.11 0.07 0.09 0.02 0.20 0.21 0.07 0.07 0.14 0.37 0.25 0.42 0.65 0.29 0.05 0.05 0.31 0.07 0.06 0.06 0.04 0.08 0.07 0.12 0.23
0.41 0.39 0.11 0.21 0.22 0.09 0.09 0.12 0.11 0.15 0.26 0.21 0.25 0.16 0.05 0.05 0.04 0.04 0.13 0.03 0.10 0.02 0.04 0.01 0.06 0.14 0.05 0.02 0.03 0.02 0.01 0.02 0.02 0.01 0.00 0.01 0.04 0.06 0.02 0.17 0.02 0.16 0.16 0.26 0.06 0.45 0.13 0.25 0.07 0.25 0.47 0.37 0.25 0.30 0.39 0.24 0.11 0.31 0.63 0.37 0.31 0.09 0.06 0.05 0.05 0.16 0.06 0.39 0.60 0.35 0.21 0.28 0.27 0.11 0.59 0.30 0.25 0.08 0.15 0.32 0.42 0.46 0.41 0.42 0.37 0.32 0.10 0.11
0.30 0.14 0.11 0.15 0.12 0.06 0.21 0.07 0.05 0.04 0.16 0.15 0.25 0.30 0.17 0.11 0.65 0.05 0.13 0.17 0.08 0.08 0.32 0.01 0.03 0.17 0.05 0.01 0.03 0.02 0.01 0.00 0.00 0.00 0.00 0.01 0.06 0.05 0.01 0.05 0.01 0.02 0.09 0.20 0.19 0.36 0.49 0.25 0.34 0.40 0.21 0.31 0.38 0.28 0.36 0.34 0.30 0.50 0.25 0.18 0.21 0.25 0.15 0.18 0.08 0.07 0.28 0.36 0.56 0.28 0.49 0.24 0.19 0.07 0.10 0.38 0.21 0.22 0.50 0.30 0.43 0.41 0.31 0.33 0.26 0.16 0.12 0.13